Location: Cheadle
(51.0146°N, 113.5417°W)
Time: 22:15:54
(UTC+00:00)

Tiangong - Visible Passes

Search period start: 10 June 2023 00:00
Search period end: 20 June 2023 00:00
Orbit: 386 x 390 km, 41.5° (Epoch: 10 June)

Date Brightness Start Highest point End Pass type
(mag) Time Alt. Az. Time Alt. Az. Time Alt. Az.
10 Jun -0.2 09:29:16 15° S 09:29:16 15° S 09:30:47 10° SE visible
11 Jun -0.1 10:05:52 12° SSW 10:06:31 13° SSW 10:08:04 10° SSE visible
16 Jun 0.2 05:12:53 10° S 05:13:05 10° S 05:13:05 10° S visible
17 Jun 0.1 05:49:29 10° SSW 05:50:03 12° SSW 05:50:03 12° SSW visible
18 Jun -0.1 04:51:03 10° SSW 04:52:44 14° S 04:54:15 11° SE visible
19 Jun -0.3 05:28:14 10° SW 05:30:10 15° S 05:30:25 15° S visible
